Find Local Weather

World > North America > United States > Arizona

Overgaard, Arizona Regional Weather

Lat: 34.39N, Lon: 110.55W
Wx Zone: AZZ016
Feedback

Overgaard, AZ Regional Weather

Expires:201905242000;;395468
ASUS45 KPSR 241910
RWRAZ 

ARIZONA HOURLY REGIONAL WEATHER ROUNDUP
NATIONAL WEATHER SERVICE PHOENIX AZ
1200 PM MST FRI MAY 24 2019

NOTE: FAIR INDICATES FEW OR NO CLOUDS BELOW 12,000 FEET WITH NO
SIGNIFICANT WEATHER AND/OR OBSTRUCTIONS TO VISIBILITY.


AZZ004>008-015-016-018-242000-
NORTH CENTRAL ARIZONA
  
CITY           SKY/WX    TMP DP  RH WIND       PRES   REMARKS
GRAND CANYON   PTSUNNY   53  33  46 VRB6      30.11F                  
WILLIAMS       MOSUNNY   55  30  38 SE9       30.10                   
PRESCOTT       MOSUNNY   63  30  28 VRB7      30.05                   
FLAGSTAFF      SUNNY     55  23  28 S12G20    30.11F                  
PAYSON         SUNNY     63  27  25 VRB6G13   30.08                   
PAGE           SUNNY     62  37  39 VRB5      30.04F                  
$$


SKY/WX - Weather  TMP - Temperature  DP - Dew Point  RH - Relative Humidity
WIND - Wind Direction/Speed PRES - Barometric Pressure VSB - Visibility
WCI - Wind Chill Index E13G22 Wind - East Wind 13 mph/Gusts of 22 mph